Weather in Porozovo

Russia / Udmurt Republic     57°16′36″N   53°57′21″E
temp.,
°C
wind,
m/s
gust,
m/s
humid.,
%
clouds,
%
prec.,
mm/h
press.,
hPa
HPBL,
m
2 march, tue
tue201:00−18ssw5109787 0.0 1013216
04:00−16ssw6119694 0.0 1009326
07:00−14ssw81395100 0.6 1005472
10:00−11ssw81494100 1.9 1002573
13:00−8ssw91393100 1.2 999618
16:00−6ssw81394100 2.1 997578
19:00−6s51196100 0.8 995353
22:00−5sse2497100 1.4 99497
3 march, wed
wed301:00−4w3397100 0.6 99484
04:00−5w369797 0.7 99592
07:00−5wnw499595 0.1 995207
10:00−5wnw469378 0.1 997252
13:00−2wsw359495 0.1 997424
16:00−2w579597 0.6 997551
19:00−5w51096100 0.3 998342
22:00−8wnw61289100 0.3 999398
4 march, thu
thu401:00−12wnw479427 0.0 999116
04:00−14w459615 0.0 100073
07:00−14wsw459735 0.0 100080
10:00−9sw589467 0.1 1000351
13:00−6sw6892100 0.2 998595
16:00−4ssw6992100 0.4 997740
19:00−5ssw61296100 0.4 995624
22:00−5ssw71496100 1.6 992708
5 march, fri
fri501:00−2sw71297100 0.9 989669
04:00−4wsw61388100 2.7 988937
07:00−7w6139079 0.0 991507
10:00−6wnw7118985 0.0 995573
13:00−5wnw698799 0.0 999683
16:00−6wnw688397 0.1 1003869
19:00−12wnw479160 0.0 1006103
22:00−16wnw459533 0.0 100980
6 march, sat
sat601:00−18wnw34960 0.0 101144
04:00−20w23990 0.0 101320
07:00−21wsw2210036 0.0 101320
10:00−16wsw229266 0.0 1013192
13:00−12ssw118499 0.0 1011406
16:00−11ese1184100 0.0 1010410
19:00−17ne119891 0.0 100820
22:00−18nnw239462 0.0 100720